Location: Lodz
(51.7833°N, 19.4667°E)
Time: 11:32:33
(UTC+02:00)

ISS - Visible Passes

Search period start: 26 September 2018 00:00
Search period end: 06 October 2018 00:00
Orbit: 403 x 408 km, 51.6° (Epoch: 26 September)

Date Brightness Start Highest point End Pass type
(mag) Time Alt. Az. Time Alt. Az. Time Alt. Az.
26 Sep -3.7 20:12:37 10° WSW 20:15:52 56° SSE 20:16:23 48° ESE visible
26 Sep -0.5 21:49:00 10° W 21:49:04 10° W 21:49:04 10° W visible
27 Sep -3.2 19:20:54 10° SW 19:24:02 41° SSE 19:26:35 14° E visible
27 Sep -2.5 20:57:05 10° W 20:59:16 38° W 20:59:16 38° W visible
28 Sep -3.9 20:05:11 10° WSW 20:08:29 78° SSE 20:09:23 45° E visible
28 Sep -0.6 21:41:41 10° W 21:42:03 13° W 21:42:03 13° W visible
29 Sep -3.7 19:13:18 10° WSW 19:16:35 63° SSE 19:19:26 13° E visible
29 Sep -2.7 20:49:44 10° W 20:52:07 44° W 20:52:07 44° W visible
30 Sep -3.9 19:57:48 10° W 20:01:06 89° S 20:02:08 41° E visible
30 Sep -0.7 21:34:18 10° W 21:34:48 13° W 21:34:48 13° W visible
01 Oct -3.8 19:05:50 10° WSW 19:09:09 82° SSE 19:12:07 12° E visible
01 Oct -2.8 20:42:21 10° W 20:44:47 46° W 20:44:47 46° W visible
02 Oct -3.9 19:50:22 10° W 19:53:42 87° S 19:54:46 40° E visible
02 Oct -0.7 21:26:55 10° W 21:27:26 13° W 21:27:26 13° W visible
03 Oct -3.8 18:58:23 10° W 19:01:42 90° NNW 19:04:44 12° E visible
03 Oct -2.8 20:34:54 10° W 20:37:24 43° WSW 20:37:24 43° WSW visible
04 Oct -3.8 19:42:54 10° W 19:46:12 72° SSW 19:47:23 36° ESE visible
04 Oct -0.6 21:19:38 10° W 21:20:03 12° W 21:20:03 12° W visible
05 Oct -3.8 18:50:53 10° W 18:54:12 84° S 18:57:23 11° E visible
05 Oct -2.4 20:27:27 10° W 20:30:03 33° SW 20:30:03 33° SW visible
